Regional Weather Roundup
Issued by NWS

Home | Current Version | Previous Version | Graphics & Text | Print | Product List | Glossary On
Versions: 1 2 3 4 5 6 7 8 9 10 11 12 13 14 15 16 17 18 19 20 21 22 23 24 25 26 27 28 29 30 31 32 33 34 35 36 37 38 39 40 41 42 43 44 45 46 47 48 49
000
ASUS45 KBOU 300207
RWRCO

WEATHER ROUNDUP FOR COLORADO
NATIONAL WEATHER SERVICE DENVER/BOULDER CO
800 PM MDT FRI APR 29 2016

NOTE: "FAIR" INDICATES FEW OR NO CLOUDS BELOW 12000 FEET WITH NO
SIGNIFICANT WEATHER AND/OR OBSTRUCTIONS TO VISIBILITY.

COZ001>005-013-030-031-300300-
...NORTHWEST COLORADO...

CITY           SKY/WX    TMP DP  RH WIND       PRES   REMARKS
CRAIG          CLOUDY    44  32  62 N13       29.81R
HAYDEN         MOCLDY    39  34  81 SE3       29.82R
MEEKER         LGT RAIN  39  36  89 SW6       29.83R
MOUNT WERNER   NOT AVBL
STEAMBOAT SPGS CLOUDY    35  34  96 E6        29.82S WCI  30
WALDEN         CLOUDY    32  27  80 N3        29.77F
$$

COZ006>008-011-300300-
...WEST CENTRAL VALLEYS...

CITY           SKY/WX    TMP DP  RH WIND       PRES   REMARKS
GRAND JUNCTION CLOUDY    48  38  68 N13G23    29.78R
MONTROSE       MOCLDY    46  33  60 S10       29.79S
EAGLE          CLOUDY    39  37  93 NW5       29.84R
RIFLE          CLOUDY    45  39  79 CALM      29.80R
DELTA          NOT AVBL
NUCLA          NOT AVBL
$$

COZ017>023-064>068-300300-
...SOUTHWEST COLORADO...

CITY           SKY/WX    TMP DP  RH WIND       PRES   REMARKS
DURANGO        FAIR      44  29  55 W15       29.80R
CORTEZ         FAIR      47  28  47 W8        29.82R
PAGOSA SPRINGS CLOUDY    36  36 100 NE5       29.84S
TELLURIDE      MOCLDY    33  30  89 SE3       29.89R
WOLF CREEK PAS SNOW      21  21 100 MISG      29.90S VSB<1/4
$$

COZ009-010-012-014-032>034-037-058>063-300300-
...CENTRAL COLORADO...

CITY           SKY/WX    TMP DP  RH WIND       PRES   REMARKS
ASPEN          SNOW      33  31  92 CALM      29.81R VSB 1/2
BUENA VISTA    LGT SNOW  30  29  95 SE8       29.86S VSB 3/4 WCI  23
COPPER MTN     NOT AVBL
BERTHOUD PASS  LGT SNOW  14   5  67 CALM      29.86S
COTTONWOOD PAS SNOW      28  27  93 E6        29.86S VSB 1/4 WCI  22
GUNNISON       CLOUDY    37  32  81 E3        29.82S
KREMMLING      LGT SNOW  34  32  93 CALM      29.83R
LEADVILLE      SNOW      24  24 100 S13       29.83R VSB 1/2 WCI  12
SALIDA         CLOUDY    33  30  87 E6        29.93S WCI  28
SUNLIGHT       SNOW      30  30 100 CALM      29.90R VSB<1/4
WILKERSON PASS LGT SNOW N/A N/A N/A E7        29.88S
$$

COZ069>075-300300-
...SAN LUIS VALLEY/SANGRE DE CRISTO MOUNTAINS...

CITY           SKY/WX    TMP DP  RH WIND       PRES   REMARKS
ALAMOSA        LGT SNOW  33  32  96 MISG      29.83R FOG
LA VETA PASS   LGT SNOW  21  19  93 MISG      29.86R
SAGUACHE       LGT SNOW  32  32 100 CALM      29.85R
$$

COZ035-036-038>040-300300-
...NORTHERN COLORADO FRONT RANGE...

CITY           SKY/WX    TMP DP  RH WIND       PRES   REMARKS
DENVER INTL AP FOG       33  30  88 N6        29.89S VSB 1   WCI  28
DMNS CITY PARK   N/A     33  33  99 N1        29.90F
AURORA         FLURRIES  32  32 100 N3        29.90F
FRONT RANGE AP FOG       32  32 100 NW6       29.90S VSB 1   WCI  26
ERIE MUNI ARPT LGT RAIN  35  34  96 NE3       29.91S
BOULDER MUN AP LGT RAIN  36  34  93 N3        29.90S
CENTENNIAL     LGT SNOW  32  31  96 N7        29.89S FOG     WCI  26
BROOMFIELD     LGT SNOW  34  34 100 N3        29.90F
FORT COLLINS   CLOUDY    36  32  87 NW5       29.92S
LONGMONT       MIX PCPN  38  35  90 CALM      29.93S
$$

COZ041-046-047-076>085-087-088-300300-
...PIKES PEAK/PALMER DIVIDE AND SOUTHERN FOOTHILLS...

CITY           SKY/WX    TMP DP  RH WIND       PRES   REMARKS
COLO. SPRINGS  CLOUDY    33  28  81 N10       29.88S FOG     WCI  25
A. F. ACADEMY  CLOUDY    32  30  93 N9        29.87R WCI  24
SCHRIEVER AFB  NOT AVBL
ELLICOTT       NOT AVBL
FALCON         CLOUDY    30  28  90 N7        29.87S WCI  23
FORT CARSON    FLURRIES  33  32  96 N2        29.87S
LIMON          LGT SNOW  30  29  96 N10       29.88R FOG     WCI  21
MONUMENT HILL  LGT SNOW  28  27  93 N6        29.88F WCI  22
TRINIDAD       LGT SNOW  32  30  92 NW7       29.88R FOG     WCI  26
$$

COZ042>045-048>051-090-091-300300-
...NORTHEAST COLORADO...

CITY           SKY/WX    TMP DP  RH WIND       PRES   REMARKS
GREELEY ARPT   CLOUDY    36  34  93 N8        29.92S
AKRON          LGT SNOW  31  29  92 N14       29.88R VSB 1   WCI  21
BURLINGTON     LGT SNOW  33  30  88 N10       29.85S FOG     WCI  25
WRAY           NOT AVBL
STERLING       LGT SNOW  32  32 100 N7        29.89F WCI  26
HOLYOKE        NOT AVBL
FORT MORGAN    LGT SNOW  32  32  99 NW8       29.91S WCI  25
$$

COZ086-089-092>099-300300-
...SOUTHEAST COLORADO...

CITY           SKY/WX    TMP DP  RH WIND       PRES   REMARKS
PUEBLO         CLOUDY    37  33  85 CALM      29.90R
LA JUNTA       MIX PCPN  37  35  92 N9        29.89R
LAMAR          CLOUDY    38  35  89 N9        29.85R
SPRINGFIELD      N/A     36  34  92 N13       29.84R
$$



USA.gov is the U.S. government's official web portal to all federal, state and local government web resources and services.